This is the latest recevied weather packets stored in our database for station/object W6SNO-1. If no packets are shown the sender has not sent any weather packets the latest 10 day(s).
| Time | Temp. | Humidity | Pressure | Rain* | Wind** | Luminosity | Snow |
|---|---|---|---|---|---|---|---|
| 1777780644 | 13.33° C | 76% | 1012.2 hPa | 0 mm | - | 0 W/m² | - |
| 1777780341 | 13.33° C | 76% | 1012.1 hPa | 0 mm | - | 0 W/m² | - |
| 1777780038 | 13.33° C | 76% | 1012.1 hPa | 0 mm | - | 0 W/m² | - |
| 1777779735 | 13.33° C | 76% | 1012 hPa | 0 mm | - | 0 W/m² | - |
| 1777779433 | 13.33° C | 76% | 1011.8 hPa | 0 mm | - | 0 W/m² | - |
| 1777779130 | 13.89° C | 76% | 1011.7 hPa | 0 mm | - | 0 W/m² | - |
| 1777778828 | 13.89° C | 77% | 1011.8 hPa | 0 mm | - | 0 W/m² | - |
| 1777778526 | 13.89° C | 78% | 1011.7 hPa | 0 mm | - | 0 W/m² | - |
| 1777778223 | 13.89° C | 78% | 1011.7 hPa | 0 mm | - | 0 W/m² | - |
| 1777777921 | 13.89° C | 78% | 1011.8 hPa | 0 mm | - | 0 W/m² | - |
| 1777777617 | 13.89° C | 78% | 1011.8 hPa | 0 mm | - | 0 W/m² | - |
| 1777777314 | 13.89° C | 78% | 1011.6 hPa | 0 mm | - | 1 W/m² | - |
| 1777777011 | 13.89° C | 78% | 1011.6 hPa | 0 mm | - | 1 W/m² | - |
| 1777776709 | 14.44° C | 76% | 1011.7 hPa | 0 mm | - | 2 W/m² | - |
| 1777776404 | 14.44° C | 76% | 1011.3 hPa | 0 mm | - | 4 W/m² | - |
| 1777776102 | 14.44° C | 76% | 1011.4 hPa | 0 mm | - | 4 W/m² | - |
| 1777775799 | 14.44° C | 75% | 1011.3 hPa | 0 mm | - | 7 W/m² | - |
| 1777775496 | 14.44° C | 76% | 1011.3 hPa | 0 mm | - | 9 W/m² | - |
| 1777775192 | 15° C | 76% | 1011.3 hPa | 0 mm | - | 15 W/m² | - |
| 1777774891 | 15° C | 76% | 1011.2 hPa | 0 mm | - | 15 W/m² | - |
| 1777774589 | 15° C | 76% | 1011.2 hPa | 0 mm | - | 21 W/m² | - |
| 1777774285 | 15° C | 76% | 1011.3 hPa | 0 mm | - | 21 W/m² | - |
| 1777773982 | 15° C | 76% | 1011.2 hPa | 0 mm | - | 37 W/m² | - |
| 1777773680 | 15° C | 76% | 1011.3 hPa | 0 mm | - | 37 W/m² | - |
| 1777773376 | 15.56° C | 74% | 1011.2 hPa | 0 mm | - | 55 W/m² | - |
* Rain latest hour (hover to see other rain measurements)
** Current wind speed in m/s (hover to see current wind gust speed)